STARLINK-36757

Last updated on Sat Mar 14 2026 00:02:06 GMT+0000 (Coordinated Universal Time)

1 67728U 26026H 26072.58334491 .00078961 00000+0 23630-2 0 9996 2 67728 97.3059 127.1186 0000971 129.0064 163.0263 15.34238123 5941
UTC large
Height (km)
Speed (km/s)
/
Latitude / Longitude
Inclination (degrees)
Orbital Period (minutes)
Azimuth
Elevation
Range (km)
Doppler Factor

Next 0 passes for location: London (51.5072 / 0.1276)

Sorry there are no passes over London.